Regional Weather Roundup
Issued by NWS

Home | Current Version | Previous Version | Graphics & Text | Print | Product List | Glossary On
Versions: 1 2 3 4 5 6 7 8 9 10 11 12 13 14 15 16 17 18 19 20 21 22 23 24 25 26 27 28 29 30 31 32 33 34 35 36 37 38 39 40 41 42 43 44 45 46 47 48 49 50
000
ASUS45 KBOI 160710
RWRID

IDAHO REGIONAL WEATHER ROUNDUP
NATIONAL WEATHER SERVICE BOISE ID
100 AM MDT MON OCT 16 2017

NOTE: "FAIR" INDICATES FEW OR NO CLOUDS BELOW 12000 FEET
WITH NO SIGNIFICANT WEATHER AND/OR OBSTRUCTIONS TO VISIBILITY

IDZ012-014-160800-
SOUTHWEST IDAHO


CITY           SKY/WX    TMP DP  RH WIND       PRES   REMARKS
BOISE          CLEAR     42  27  55 S6        30.35S
CALDWELL       CLEAR     37  28  70 CALM      30.36F
MOUNTAIN HOME  CLEAR     36  17  46 CALM      30.35F
$$

IDZ016-017-160800-
SOUTHCENTRAL IDAHO


CITY           SKY/WX    TMP DP  RH WIND       PRES   REMARKS
BURLEY         CLEAR     30  26  85 CALM      30.35F
JEROME         CLEAR     39  26  59 NE12      30.36S WCI  32
TWIN FALLS     CLEAR     36  22  56 E5        30.35S WCI  32
$$

IDZ019>023-160800-
SOUTHEAST IDAHO


CITY           SKY/WX    TMP DP  RH WIND       PRES   REMARKS
IDAHO FALLS    CLOUDY    31  26  82 CALM      30.40S
POCATELLO      CLOUDY    30  25  81 CALM      30.40S
REXBURG        CLOUDY    30  25  81 NE3       30.40S
$$

IDZ006-010-011-018-031-032-160800-
CENTRAL IDAHO MOUNTAINS


CITY           SKY/WX    TMP DP  RH WIND       PRES   REMARKS
MCCALL         CLEAR     28  24  85 NE5       30.36F WCI  23
HAILEY         CLEAR     34  23  64 NW9       30.43S WCI  26
STANLEY          N/A     25  21  85 S3        30.42S
SALMON         NOT AVBL
CHALLIS        CLEAR     32  26  78 CALM      30.37S
$$

IDZ002-004-006-007-026-160800-
NORTHERN IDAHO


CITY           SKY/WX    TMP DP  RH WIND       PRES   REMARKS
LEWISTON       CLEAR     48  35  60 W3        30.27R
LOWELL           N/A     40  37  89 N3        30.36R
COEUR D`ALENE  CLEAR     35  32  88 N6        30.27R WCI  30
MULLAN PASS    CLEAR     38  20  48 W7        30.26F WCI  33
$$



USA.gov is the U.S. government's official web portal to all federal, state and local government web resources and services.